Regional Weather Roundup
Issued by NWS

Home | Current Version | Previous Version | Text Only | Print | Product List | Glossary On
Versions: 1 2 3 4 5 6 7 8 9 10 11 12 13 14 15 16 17 18 19 20 21 22 23 24 25 26 27 28 29 30 31 32 33 34 35 36 37 38 39 40 41 42 43 44 45 46 47 48 49 50
000
ASUS43 KLMK 270210
RWRKY
KENTUCKY REGIONAL WEATHER ROUNDUP
NATIONAL WEATHER SERVICE LOUISVILLE KY
1000 PM EDT MON JUN 26 2017

NOTE "FAIR" INDICATES FEW OR NO CLOUDS BELOW 12,000 FEET
WITH NO SIGNIFICANT WEATHER AND/OR OBSTRUCTIONS TO VISIBILITY.

KYZ001>023-026-027-061>063-070>075-270300-
WESTERN AND SOUTH CENTRAL KENTUCKY

CITY           SKY/WX    TMP DP  RH WIND       PRES   REMARKS
PADUCAH        CLOUDY    70  54  56 S6        30.05F
HENDERSON      CLOUDY    68  53  58 NE7       30.09R
OWENSBORO      CLOUDY    70  52  52 N10       30.09S
HOPKINSVILLE   CLOUDY    72  52  49 SW3       30.09F
BOWLING GREEN  CLOUDY    74  52  46 SW3       30.09F
GLASGOW        PTCLDY    66  58  74 CALM      30.10S
$$

KYZ024-025-028>034-038-045-046-053-270300-
NORTH CENTRAL KENTUCKY

CITY           SKY/WX    TMP DP  RH WIND       PRES   REMARKS
LOUISVILLE/SDF CLOUDY    71  46  40 NW10      30.09R
LOUISVILLE/LOU CLOUDY    71  49  45 NW5       30.09R
FORT KNOX      CLOUDY    65  54  65 NW7       30.07S
$$

KYZ035>037-039>044-047>052-055>060-089>105-270300-
NORTHEAST KENTUCKY

CITY           SKY/WX    TMP DP  RH WIND       PRES   REMARKS
LEXINGTON      CLOUDY    68  48  48 NW3       30.09S
COVINGTON      CLOUDY    66  50  56 W7        30.06S
FRANKFORT      CLOUDY    66  52  60 CALM      30.08S
$$

KYZ054-064>069-076>088-106>120-270300-
SOUTHEAST KENTUCKY

CITY           SKY/WX    TMP DP  RH WIND       PRES   REMARKS
JACKSON        CLEAR     67  49  52 CALM      30.09F
LONDON         CLEAR     64  52  64 CALM      30.11R
SOMERSET       CLOUDY    63  54  72 CALM      30.12R
MIDDLESBORO    CLEAR     64  54  70 CALM      30.11S
MONTICELLO     CLOUDY    62  57  83 NW9       30.12S
$$





USA.gov is the U.S. government's official web portal to all federal, state and local government web resources and services.